Weather in Istobnoye

Russia / Lipetsk Oblast     53°08′34″N   39°57′53″E
temp.,
°C
wind,
m/s
gust,
m/s
humid.,
%
clouds,
%
prec.,
mm/h
press.,
hPa
HPBL,
m
12 may, wed
wed1200:00+7se22840 0.0 102622
03:00+6ene228431 0.0 102619
06:00+7ne2483100 0.0 1026106
09:00+12ne4574100 0.0 1024670
12:00+9n1296100 5.2 1022159
15:00+9nnw3496100 7.1 1021202
18:00+12se237946 0.0 1020653
21:00+8e34915 0.0 102157
13 may, thu
thu1300:00+8e489471 0.0 1020140
03:00+8e4109584 0.0 1020192
06:00+9e3792100 0.0 1019171
09:00+15e347696 0.0 1018408
12:00+19ese4568100 0.3 10161236
15:00+19se56685 1.1 10151107
18:00+18ssw367489 1.1 1015237
21:00+11wnw23935 1.3 101746
14 may, fri
fri1400:00+10nne229270 0.0 101816
03:00+10ene2293100 0.0 101831
06:00+12e2491100 0.0 1018118
09:00+19ese57775 0.0 1017502
12:00+23se6862100 0.0 10161416
15:00+25se69595 0.0 10151718
18:00+23sse51070100 0.1 1014366
21:00+18se41090100 0.1 1013204
15 may, sat
sat1500:00+17s339258 0.1 101350
03:00+16se3492100 0.9 101365
06:00+16nnw129155 0.2 101265
09:00+20sse3578100 0.4 1012470
12:00+21ese4574100 0.1 1011402
15:00+24s69626 1.2 10111575
18:00+21ssw587555 1.4 1011390
21:00+17ssw46850 1.9 101288
16 may, sun
sun1600:00+15sw35900 0.0 101389
03:00+13sw3394100 0.0 101464
06:00+14wsw25935 0.0 1015160
09:00+18wnw34700 0.0 1016595
12:00+20wnw22540 0.0 10161069
15:00+22wnw11485 0.0 10161196
18:00+21nne1260100 0.0 1016110
21:00+16ne3368100 0.0 101630